Regional Weather Roundup
Issued by NWS Newport/Morehead, NC

Current Version | Previous Version | Graphics & Text | Print | Product List | Glossary Off
Versions: 1 2 3 4 5 6 7 8 9 10 11 12 13 14 15 16 17 18 19 20 21 22 23 24 25 26 27 28 29 30 31 32 33 34 35 36 37 38 39 40 41 42 43 44 45 46 47 48 49 50

000
ASUS42 KMHX 241725
RWRMHX
WEATHER ROUNDUP FOR EASTERN NORTH CAROLINA
NATIONAL WEATHER SERVICE NEWPORT/MOREHEAD CITY NC
100 PM EDT SAT SEP 24 2016

NOTE: "FAIR" INDICATES FEW OR NO CLOUDS BELOW 12,000 FEET
WITH NO SIGNIFICANT WEATHER AND/OR OBSTRUCTIONS TO VISIBILITY

NCZ015>017-031-032-045>047-102-103-241800-
NORTH COAST

CITY           SKY/WX    TMP DP  RH WIND       PRES   REMARKS
EDENTON        SUNNY     86  68  55 W3        30.04S
ELIZABETH CITY SUNNY     86  66  51 N6        30.03S
KITTY HAWK     NOT AVBL
MANTEO         SUNNY     82  69  64 N5        30.03S

$$

NCZ045>047-081-094-103-104-241800-
CENTRAL COAST

CITY           SKY/WX    TMP DP  RH WIND       PRES   REMARKS
FRISCO         SUNNY     82  67  60 N8        30.03S

$$

NCZ095-097-098-100-101-241800-
SOUTHERN COAST

CITY           SKY/WX    TMP DP  RH WIND       PRES   REMARKS
BEAUFORT       SUNNY     86  66  51 N9        30.03F
CEDAR ISLAND   NOT AVBL
JACKSONVILLE   SUNNY     84  67  56 VRB5      30.04F
PINEY ISLAND   SUNNY    N/A N/A N/A N7        30.03F
WILMINGTON     MOSUNNY   84  71  65 N7        30.05F


$$

NCZ011>013-027>030-043-044-078>080-089-090>093-098-241800-
COASTAL PLAIN

CITY           SKY/WX    TMP DP  RH WIND       PRES   REMARKS
AHOSKIE        SUNNY     85  69  59 W3        30.04S
CLINTON        SUNNY     85  71  62 CALM      30.06F
ELIZABETHTOWN  SUNNY     85  68  57 CALM      30.06F
GOLDSBORO      SUNNY     85  66  53 VRB3      30.03F
GREENVILLE     SUNNY     86  66  51 CALM      30.06S
HAVELOCK       SUNNY     84  69  60 N6        30.05F
KENANSVILLE    SUNNY     84  68  58 CALM      30.05F
KINSTON        SUNNY     84  66  54 CALM      30.05F
NEW BERN       SUNNY     84  66  54 VRB3      30.05F
RICHLANDS      SUNNY     84  68  58 NW3       30.05F
ROCKY MOUNT    SUNNY     86  68  54 SW6       30.05S
WASHINGTON     SUNNY     84  70  63 CALM      30.03F
WHITEVILLE     MOSUNNY   84  70  62 N3        30.06S

$$

AMZ130-135-150-152-154-156-158-170-250-252-270-ANZ085-086-088-633-658-670-241800-
MARINE OBSERVATIONS

STATION/POSITION TIME  TEMP    WIND        PRES    WAVE   SWELL
                       AIR SEA DIR/SP/G            HT/PER HT/PER
                 (UTC) (F)     (DEG/KT/KT) (MB)    (FT/S) (FT/S)
CHESAPEAKE LIGHT NOT AVBL
64 E VA BEACH    1650   75 76  320/  8/  8 1016.3    4/10   3/10
DUCK             1700   79 77   20/  6/  6 1016.3
2 E DUCK         1641      79                N/A     4/11   3/11
OREGON INLET     1700   79 79   30/  5/  7 1016.4
13E OREGON INLT  1700      78                N/A     4/11   3/11
HATTERAS CG      1700   79 81  360/  5/  7 1016.5
DIAMOND BUOY     1650   78 81  360/  8/ 10 1016.5    5/11   5/11
CAPE LOOKOUT     1700   80      60/  6/  7 1016.7
BEAUFORT LAB     1700   82 79   10/  6/  9 1016.5
30 SE NEW RVR IN 1708   79 82   20/  8/ 12 1017.1
30 SE NEW RVR IN 1625      82                N/A     4/11   2/11
27 SE WRIGHTSVLE 1608   79 81   30/ 12/ 16 1017.6
5 SE WRIGHTSVLE  1708   80 81   70/  6/  8 1018.4
225 S CAPE HAT   1650   82 83  280/ 10/ 12 1016.2    4/11   3/11
41 SE CHARLESTON 1650   80 82   10/ 12/ 14 1016.9    3/11   3/11

$$




USA.gov is the U.S. government's official web portal to all federal, state and local government web resources and services.